Regional Weather Roundup
Issued by NWS Albany, NY

Current Version | Previous Version | Graphics & Text | Print | Product List | Glossary Off
Versions: 1 2 3 4 5 6 7 8 9 10 11 12 13 14 15 16 17 18 19 20 21 22 23 24 25 26 27 28 29 30 31 32 33 34 35 36 37 38 39 40 41 42 43 44 45 46 47 48 49 50

000
ASUS41 KALY 310110
RWRALY

NEW YORK STATE HOURLY WEATHER ROUNDUP
NATIONAL WEATHER SERVICE ALBANY NY
800 PM EST FRI JAN 30 2015

NOTE: "FAIR" INDICATES FEW OR NO CLOUDS BELOW 12,000 FEET WITH NO
SIGNIFICANT WEATHER AND/OR NO OBSTRUCTIONS TO VISIBILITY.

NYZ032-033-038>043-046>054-057>066-NYZ062>081-310200-
EAST


CITY           SKY/WX    TMP DP  RH WIND       PRES   REMARKS
ALBANY         PTCLDY    14   3  61 NW18G30   30.04R WCI  -3
GLENS FALLS    CLOUDY    14   1  56 NW13G23   30.03R WCI   0
POUGHKEEPSIE   CLEAR     23   6  48 NW16G30   29.98R WCI  10
NEWBURGH       CLEAR     19  10  68 NW23G32   29.97R WCI   2
MONTGOMERY     PTCLDY    19   4  51 N13G25    29.99R WCI   6
WHITE PLAINS   CLEAR     23   9  55 NW24G36   29.91R WCI   7
ISLIP          PTCLDY    29  13  51 NW20G28   29.87R WCI  16
NEW YORK CITY  PTCLDY    25  12  58 NW32      29.97R WCI   8
CENTRAL PARK   CLEAR     25   8  48 NW14G30   30.02R WCI  13
$$

NYZ005>009-017-018-044>046-055-056-310200-
CENTRAL


CITY           SKY/WX    TMP DP  RH WIND       PRES   REMARKS
FULTON         CLOUDY    16   3  56 NW14G25   30.22R WCI   2
SYRACUSE       FLURRIES  14   6  70 NW15      30.20R WCI  -1
ROME           PTCLDY     9   0  67 NW13      30.19R WCI  -7
ELMIRA         FLURRIES  13   3  64 NW9       30.21R WCI   1
BINGHAMTON     LGT SNOW   8   4  83 NW14G24   30.06S FOG     WCI  -8
MONTICELLO     CLOUDY    14   7  73 NW15      29.97S WCI  -1
$$

NYZ026>034-041>043-310200-
NORTH


CITY           SKY/WX    TMP DP  RH WIND       PRES   REMARKS
WATERTOWN      CLEAR      0  -6  76 CALM      30.25R
FORT DRUM      NOT AVBL
MASSENA        CLEAR      6  -6  57 NW9       30.21R WCI  -8
SARANAC LAKE   CLOUDY     3  -3  76 VRB7G17   29.99R HAZE    WCI  -9
PLATTSBURGH    CLOUDY    11  -1  58 NW14      30.11R WCI  -5
$$

NYZ001>004-010>016-019>021-310200-
WEST


CITY           SKY/WX    TMP DP  RH WIND       PRES   REMARKS
NIAGARA FALLS  MOCLDY    11   1  64 NW13      30.34R WCI  -4
BUFFALO        MOCLDY    10   0  63 W13       30.32R WCI  -5
DUNKIRK        CLEAR     10   1  67 W12G21    30.37R WCI  -5
JAMESTOWN      PTCLDY     7   0  72 NW13      30.24R WCI  -9
WELLSVILLE     CLOUDY     6  -1  73 NW16G26   30.15R WCI -12
ROCHESTER      LGT SNOW  13   5  70 NW15      30.28R WCI  -3
PENN YAN       LGT SNOW  11   3  70 NW16G29   30.21R WCI  -6
$$

             KEY
       WCI = WIND CHILL INDEX
       VSB = VISIBILITY
       HX  = HEAT INDEX
$$



USA.gov is the U.S. government's official web portal to all federal, state and local government web resources and services.